Time,TemperatureF,DewpointF,PressureIn,WindDirection,WindDirectionDegrees,WindSpeedMPH,WindSpeedGustMPH,Humidity,HourlyPrecipIn,Conditions,Clouds,dailyrainin,SoftwareType,DateUTC
2013-02-12 00:00:00,37.3,28.0,28.83,SW,225,5.0,10.0,69,0.00,,,0.00,Rainwise IP-100,2013-02-12 05:00:00,
2013-02-12 00:05:00,37.2,28.0,28.84,SW,225,4.0,7.0,70,0.00,,,0.00,Rainwise IP-100,2013-02-12 05:05:00,
2013-02-12 00:10:00,37.2,28.0,28.84,WSW,247,6.0,12.0,69,0.00,,,0.00,Rainwise IP-100,2013-02-12 05:10:00,
2013-02-12 00:15:00,37.2,28.0,28.84,West,270,2.0,13.0,69,0.00,,,0.00,Rainwise IP-100,2013-02-12 05:15:00,
2013-02-12 00:20:00,37.2,28.0,28.84,SW,225,14.0,14.0,68,0.00,,,0.00,Rainwise IP-100,2013-02-12 05:20:00,
2013-02-12 00:25:00,37.2,28.0,28.84,WSW,247,14.0,17.0,69,0.00,,,0.00,Rainwise IP-100,2013-02-12 05:25:00,
2013-02-12 00:30:00,37.2,28.0,28.84,SW,225,6.0,20.0,69,0.00,,,0.00,Rainwise IP-100,2013-02-12 05:30:00,
2013-02-12 00:35:00,37.2,28.0,28.84,WSW,247,11.0,20.0,69,0.00,,,0.00,Rainwise IP-100,2013-02-12 05:35:00,
2013-02-12 00:40:00,36.9,28.0,28.84,SSW,202,6.0,13.0,70,0.00,,,0.00,Rainwise IP-100,2013-02-12 05:40:00,
2013-02-12 00:45:00,37.1,28.0,28.83,WSW,247,9.0,22.0,68,0.00,,,0.00,Rainwise IP-100,2013-02-12 05:45:00,
2013-02-12 00:50:00,37.0,28.0,28.82,SW,225,12.0,22.0,68,0.00,,,0.00,Rainwise IP-100,2013-02-12 05:50:00,
2013-02-12 00:55:00,37.0,28.0,28.82,WSW,247,12.0,21.0,68,0.00,,,0.00,Rainwise IP-100,2013-02-12 05:55:00,
2013-02-12 01:00:00,36.9,28.0,28.83,WSW,247,7.0,19.0,68,0.00,,,0.00,Rainwise IP-100,2013-02-12 06:00:00,
2013-02-12 01:05:00,37.0,28.0,28.83,SW,225,9.0,22.0,68,0.00,,,0.00,Rainwise IP-100,2013-02-12 06:05:00,
2013-02-12 01:10:00,37.0,28.0,28.83,SW,225,16.0,23.0,68,0.00,,,0.00,Rainwise IP-100,2013-02-12 06:10:00,
2013-02-12 01:15:00,36.9,28.0,28.83,WSW,247,17.0,25.0,68,0.00,,,0.00,Rainwise IP-100,2013-02-12 06:15:00,
2013-02-12 01:20:00,36.8,28.0,28.83,SW,225,6.0,22.0,69,0.00,,,0.00,Rainwise IP-100,2013-02-12 06:20:00,
2013-02-12 01:25:00,36.7,28.0,28.83,West,270,4.0,17.0,69,0.00,,,0.00,Rainwise IP-100,2013-02-12 06:25:00,
2013-02-12 01:30:00,36.5,28.0,28.83,SW,225,14.0,17.0,70,0.00,,,0.00,Rainwise IP-100,2013-02-12 06:30:00,
2013-02-12 01:35:00,36.7,28.0,28.83,WSW,247,19.0,22.0,69,0.00,,,0.00,Rainwise IP-100,2013-02-12 06:35:00,
2013-02-12 01:40:00,36.7,28.0,28.83,WSW,247,13.0,22.0,69,0.00,,,0.00,Rainwise IP-100,2013-02-12 06:40:00,
2013-02-12 01:45:00,36.5,28.0,28.83,WSW,247,12.0,14.0,70,0.00,,,0.00,Rainwise IP-100,2013-02-12 06:45:00,
2013-02-12 01:50:00,36.4,26.0,28.84,SW,225,10.0,14.0,69,0.00,,,0.00,Rainwise IP-100,2013-02-12 06:50:00,
2013-02-12 01:52:00,36.3,28.0,28.84,WSW,247,8.0,17.0,70,0.00,,,0.00,Rainwise IP-100,2013-02-12 06:52:00,
2013-02-12 01:57:00,36.3,26.0,28.84,WSW,247,14.0,22.0,68,0.00,,,0.00,Rainwise IP-100,2013-02-12 06:57:00,
2013-02-12 02:00:00,36.4,26.0,28.84,SW,225,10.0,25.0,69,0.00,,,0.00,Rainwise IP-100,2013-02-12 07:00:00,
2013-02-12 02:01:00,36.3,26.0,28.84,SW,225,10.0,25.0,69,0.00,,,0.00,Rainwise IP-100,2013-02-12 07:01:00,
2013-02-12 02:06:00,36.2,26.0,28.84,West,270,5.0,20.0,69,0.00,,,0.00,Rainwise IP-100,2013-02-12 07:06:00,
2013-02-12 02:11:00,36.1,26.0,28.84,WNW,292,12.0,21.0,69,0.00,,,0.00,Rainwise IP-100,2013-02-12 07:11:00,
2013-02-12 02:16:00,36.1,28.0,28.85,SSW,202,12.0,17.0,70,0.00,,,0.00,Rainwise IP-100,2013-02-12 07:16:00,
2013-02-12 02:21:00,36.1,28.0,28.85,WSW,247,12.0,25.0,70,0.00,,,0.00,Rainwise IP-100,2013-02-12 07:21:00,
2013-02-12 02:26:00,36.2,28.0,28.84,WSW,247,14.0,27.0,70,0.00,,,0.00,Rainwise IP-100,2013-02-12 07:26:00,
2013-02-12 02:31:00,36.3,26.0,28.85,WSW,247,11.0,23.0,69,0.00,,,0.00,Rainwise IP-100,2013-02-12 07:31:00,
2013-02-12 02:36:00,36.2,28.0,28.85,West,270,7.0,17.0,70,0.00,,,0.00,Rainwise IP-100,2013-02-12 07:36:00,
2013-02-12 02:41:00,36.1,28.0,28.86,SW,225,10.0,21.0,70,0.00,,,0.00,Rainwise IP-100,2013-02-12 07:41:00,
2013-02-12 02:46:00,36.2,26.0,28.86,SW,225,9.0,19.0,69,0.00,,,0.00,Rainwise IP-100,2013-02-12 07:46:00,
2013-02-12 02:51:00,36.1,28.0,28.86,SW,225,6.0,16.0,70,0.00,,,0.00,Rainwise IP-100,2013-02-12 07:51:00,
2013-02-12 02:56:00,36.1,28.0,28.86,WSW,247,8.0,24.0,70,0.00,,,0.00,Rainwise IP-100,2013-02-12 07:56:00,
2013-02-12 03:01:00,36.2,26.0,28.86,WSW,247,7.0,19.0,69,0.00,,,0.00,Rainwise IP-100,2013-02-12 08:01:00,
2013-02-12 03:06:00,36.1,28.0,28.86,West,270,10.0,16.0,70,0.00,,,0.00,Rainwise IP-100,2013-02-12 08:06:00,
2013-02-12 03:11:00,36.2,26.0,28.86,SW,225,12.0,20.0,69,0.00,,,0.00,Rainwise IP-100,2013-02-12 08:11:00,
2013-02-12 03:16:00,36.2,26.0,28.86,SSW,202,11.0,21.0,69,0.00,,,0.00,Rainwise IP-100,2013-02-12 08:16:00,
2013-02-12 03:21:00,36.1,28.0,28.86,WSW,247,7.0,19.0,70,0.00,,,0.00,Rainwise IP-100,2013-02-12 08:21:00,
2013-02-12 03:26:00,36.0,28.0,28.86,WSW,247,10.0,16.0,70,0.00,,,0.00,Rainwise IP-100,2013-02-12 08:26:00,
2013-02-12 03:31:00,36.1,26.0,28.86,SW,225,15.0,19.0,69,0.00,,,0.00,Rainwise IP-100,2013-02-12 08:31:00,
2013-02-12 03:36:00,36.2,26.0,28.86,WSW,247,16.0,26.0,69,0.00,,,0.00,Rainwise IP-100,2013-02-12 08:36:00,
2013-02-12 03:41:00,36.1,26.0,28.86,WSW,247,5.0,24.0,69,0.00,,,0.00,Rainwise IP-100,2013-02-12 08:41:00,
2013-02-12 03:46:00,35.9,28.0,28.87,WSW,247,6.0,18.0,70,0.00,,,0.00,Rainwise IP-100,2013-02-12 08:46:00,
2013-02-12 03:51:00,35.9,28.0,28.87,WSW,247,7.0,12.0,70,0.00,,,0.00,Rainwise IP-100,2013-02-12 08:51:00,
2013-02-12 03:56:00,35.9,28.0,28.87,WSW,247,13.0,14.0,70,0.00,,,0.00,Rainwise IP-100,2013-02-12 08:56:00,
2013-02-12 04:01:00,35.9,28.0,28.87,SW,225,12.0,19.0,70,0.00,,,0.00,Rainwise IP-100,2013-02-12 09:01:00,
2013-02-12 04:06:00,35.9,28.0,28.87,WSW,247,7.0,22.0,70,0.00,,,0.00,Rainwise IP-100,2013-02-12 09:06:00,
2013-02-12 04:11:00,35.8,28.0,28.87,SSW,202,10.0,17.0,70,0.00,,,0.00,Rainwise IP-100,2013-02-12 09:11:00,
2013-02-12 04:16:00,35.8,28.0,28.87,SW,225,9.0,14.0,70,0.00,,,0.00,Rainwise IP-100,2013-02-12 09:16:00,
2013-02-12 04:21:00,35.7,28.0,28.87,WSW,247,11.0,19.0,71,0.00,,,0.00,Rainwise IP-100,2013-02-12 09:21:00,
2013-02-12 04:26:00,35.7,28.0,28.87,SSW,202,6.0,19.0,70,0.00,,,0.00,Rainwise IP-100,2013-02-12 09:26:00,
2013-02-12 04:31:00,35.7,28.0,28.88,WSW,247,5.0,13.0,70,0.00,,,0.00,Rainwise IP-100,2013-02-12 09:31:00,
2013-02-12 04:36:00,35.5,28.0,28.87,SW,225,7.0,16.0,71,0.00,,,0.00,Rainwise IP-100,2013-02-12 09:36:00,
2013-02-12 04:41:00,35.7,28.0,28.88,WSW,247,13.0,21.0,70,0.00,,,0.00,Rainwise IP-100,2013-02-12 09:41:00,
2013-02-12 04:46:00,35.7,28.0,28.88,SW,225,7.0,24.0,70,0.00,,,0.00,Rainwise IP-100,2013-02-12 09:46:00,
2013-02-12 04:51:00,35.7,26.0,28.88,SW,225,10.0,15.0,69,0.00,,,0.00,Rainwise IP-100,2013-02-12 09:51:00,
2013-02-12 04:56:00,35.7,28.0,28.88,SSW,202,4.0,25.0,70,0.00,,,0.00,Rainwise IP-100,2013-02-12 09:56:00,
2013-02-12 05:01:00,35.7,28.0,28.88,WSW,247,16.0,19.0,70,0.00,,,0.00,Rainwise IP-100,2013-02-12 10:01:00,
2013-02-12 05:06:00,35.6,28.0,28.89,SW,225,8.0,16.0,70,0.00,,,0.00,Rainwise IP-100,2013-02-12 10:06:00,
2013-02-12 05:11:00,35.6,28.0,28.89,SSW,202,6.0,17.0,71,0.00,,,0.00,Rainwise IP-100,2013-02-12 10:11:00,
2013-02-12 05:16:00,35.5,28.0,28.89,West,270,9.0,14.0,71,0.00,,,0.00,Rainwise IP-100,2013-02-12 10:16:00,
2013-02-12 05:21:00,35.7,28.0,28.89,WSW,247,4.0,21.0,70,0.00,,,0.00,Rainwise IP-100,2013-02-12 10:21:00,
2013-02-12 05:26:00,35.6,28.0,28.90,WSW,247,10.0,19.0,70,0.00,,,0.00,Rainwise IP-100,2013-02-12 10:26:00,
2013-02-12 05:31:00,35.6,28.0,28.90,WSW,247,9.0,18.0,71,0.00,,,0.00,Rainwise IP-100,2013-02-12 10:31:00,
2013-02-12 05:36:00,35.4,26.0,28.90,WSW,247,9.0,16.0,72,0.00,,,0.00,Rainwise IP-100,2013-02-12 10:36:00,
2013-02-12 05:41:00,35.3,26.0,28.91,West,270,9.0,12.0,72,0.00,,,0.00,Rainwise IP-100,2013-02-12 10:41:00,
2013-02-12 05:46:00,35.4,26.0,28.91,WSW,247,7.0,13.0,72,0.00,,,0.00,Rainwise IP-100,2013-02-12 10:46:00,
2013-02-12 05:51:00,35.3,26.0,28.91,SSW,202,6.0,12.0,72,0.00,,,0.00,Rainwise IP-100,2013-02-12 10:51:00,
2013-02-12 05:56:00,35.3,26.0,28.91,WSW,247,6.0,21.0,72,0.00,,,0.00,Rainwise IP-100,2013-02-12 10:56:00,
2013-02-12 06:01:00,35.3,26.0,28.91,WSW,247,8.0,11.0,72,0.00,,,0.00,Rainwise IP-100,2013-02-12 11:01:00,
2013-02-12 06:06:00,35.2,26.0,28.91,SW,225,9.0,17.0,72,0.00,,,0.00,Rainwise IP-100,2013-02-12 11:06:00,
2013-02-12 06:11:00,35.3,26.0,28.91,WSW,247,6.0,16.0,72,0.00,,,0.00,Rainwise IP-100,2013-02-12 11:11:00,
2013-02-12 06:16:00,35.2,26.0,28.92,SW,225,11.0,16.0,72,0.00,,,0.00,Rainwise IP-100,2013-02-12 11:16:00,
2013-02-12 06:21:00,34.9,28.0,28.92,WSW,247,16.0,18.0,74,0.00,,,0.00,Rainwise IP-100,2013-02-12 11:21:00,
2013-02-12 06:26:00,34.9,28.0,28.92,WSW,247,12.0,24.0,74,0.00,,,0.00,Rainwise IP-100,2013-02-12 11:26:00,
2013-02-12 06:31:00,35.0,28.0,28.92,SSW,202,16.0,23.0,73,0.00,,,0.00,Rainwise IP-100,2013-02-12 11:31:00,
2013-02-12 06:36:00,34.9,28.0,28.92,West,270,16.0,21.0,74,0.00,,,0.00,Rainwise IP-100,2013-02-12 11:36:00,
2013-02-12 06:41:00,34.8,28.0,28.92,SW,225,19.0,20.0,75,0.00,,,0.00,Rainwise IP-100,2013-02-12 11:41:00,
2013-02-12 06:46:00,34.8,28.0,28.92,WSW,247,7.0,23.0,75,0.00,,,0.00,Rainwise IP-100,2013-02-12 11:46:00,
2013-02-12 06:51:00,34.8,28.0,28.93,WSW,247,10.0,21.0,74,0.00,,,0.00,Rainwise IP-100,2013-02-12 11:51:00,
2013-02-12 06:56:00,34.7,28.0,28.93,WSW,247,11.0,20.0,75,0.00,,,0.00,Rainwise IP-100,2013-02-12 11:56:00,
2013-02-12 07:01:00,34.7,28.0,28.93,WSW,247,18.0,20.0,75,0.00,,,0.00,Rainwise IP-100,2013-02-12 12:01:00,
2013-02-12 07:06:00,34.8,28.0,28.93,WSW,247,13.0,23.0,75,0.00,,,0.00,Rainwise IP-100,2013-02-12 12:06:00,
2013-02-12 07:11:00,34.8,28.0,28.93,WSW,247,7.0,24.0,75,0.00,,,0.00,Rainwise IP-100,2013-02-12 12:11:00,
2013-02-12 07:16:00,34.7,28.0,28.93,West,270,4.0,22.0,76,0.00,,,0.00,Rainwise IP-100,2013-02-12 12:16:00,
2013-02-12 07:21:00,34.6,28.0,28.93,SW,225,8.0,14.0,75,0.00,,,0.00,Rainwise IP-100,2013-02-12 12:21:00,
2013-02-12 07:26:00,34.7,28.0,28.93,SW,225,7.0,17.0,75,0.00,,,0.00,Rainwise IP-100,2013-02-12 12:26:00,
2013-02-12 07:31:00,34.7,28.0,28.94,West,270,6.0,21.0,74,0.00,,,0.00,Rainwise IP-100,2013-02-12 12:31:00,
2013-02-12 07:36:00,34.7,28.0,28.94,WSW,247,9.0,21.0,75,0.00,,,0.00,Rainwise IP-100,2013-02-12 12:36:00,
2013-02-12 07:41:00,34.7,28.0,28.95,WSW,247,9.0,17.0,75,0.00,,,0.00,Rainwise IP-100,2013-02-12 12:41:00,
2013-02-12 07:46:00,34.7,28.0,28.95,WSW,247,2.0,17.0,75,0.00,,,0.00,Rainwise IP-100,2013-02-12 12:46:00,
2013-02-12 07:51:00,34.6,28.0,28.95,SW,225,4.0,12.0,76,0.00,,,0.00,Rainwise IP-100,2013-02-12 12:51:00,
2013-02-12 07:56:00,34.7,28.0,28.95,WSW,247,6.0,16.0,75,0.00,,,0.00,Rainwise IP-100,2013-02-12 12:56:00,
2013-02-12 08:01:00,34.7,28.0,28.95,WSW,247,7.0,20.0,76,0.00,,,0.00,Rainwise IP-100,2013-02-12 13:01:00,
2013-02-12 08:06:00,34.7,28.0,28.95,West,270,12.0,19.0,75,0.00,,,0.00,Rainwise IP-100,2013-02-12 13:06:00,
2013-02-12 08:11:00,34.8,28.0,28.96,West,270,7.0,10.0,74,0.00,,,0.00,Rainwise IP-100,2013-02-12 13:11:00,
2013-02-12 08:16:00,34.7,28.0,28.96,WSW,247,6.0,22.0,76,0.00,,,0.00,Rainwise IP-100,2013-02-12 13:16:00,
2013-02-12 08:21:00,34.7,28.0,28.96,West,270,11.0,16.0,76,0.00,,,0.00,Rainwise IP-100,2013-02-12 13:21:00,
2013-02-12 08:26:00,34.7,28.0,28.96,WSW,247,11.0,21.0,75,0.00,,,0.00,Rainwise IP-100,2013-02-12 13:26:00,
2013-02-12 08:31:00,34.8,28.0,28.96,WSW,247,14.0,22.0,74,0.00,,,0.00,Rainwise IP-100,2013-02-12 13:31:00,
2013-02-12 08:36:00,34.8,28.0,28.97,SW,225,9.0,19.0,75,0.00,,,0.00,Rainwise IP-100,2013-02-12 13:36:00,
2013-02-12 08:41:00,34.8,28.0,28.97,WSW,247,12.0,14.0,75,0.00,,,0.00,Rainwise IP-100,2013-02-12 13:41:00,
2013-02-12 08:46:00,34.8,28.0,28.97,SW,225,8.0,19.0,75,0.00,,,0.00,Rainwise IP-100,2013-02-12 13:46:00,
2013-02-12 08:51:00,34.8,28.0,28.97,WNW,292,9.0,17.0,74,0.00,,,0.00,Rainwise IP-100,2013-02-12 13:51:00,
2013-02-12 08:56:00,34.8,28.0,28.98,WSW,247,14.0,16.0,75,0.00,,,0.00,Rainwise IP-100,2013-02-12 13:56:00,
2013-02-12 09:01:00,34.7,28.0,28.98,WSW,247,7.0,15.0,75,0.00,,,0.00,Rainwise IP-100,2013-02-12 14:01:00,
2013-02-12 09:06:00,34.8,28.0,28.98,WSW,247,15.0,18.0,74,0.00,,,0.00,Rainwise IP-100,2013-02-12 14:06:00,
2013-02-12 09:11:00,34.9,28.0,28.98,SW,225,12.0,16.0,74,0.00,,,0.00,Rainwise IP-100,2013-02-12 14:11:00,
2013-02-12 09:16:00,34.9,28.0,28.98,WSW,247,9.0,19.0,74,0.00,,,0.00,Rainwise IP-100,2013-02-12 14:16:00,
2013-02-12 09:21:00,34.9,28.0,28.99,WSW,247,6.0,19.0,74,0.00,,,0.00,Rainwise IP-100,2013-02-12 14:21:00,
2013-02-12 09:26:00,34.9,28.0,28.99,SW,225,4.0,15.0,75,0.00,,,0.00,Rainwise IP-100,2013-02-12 14:26:00,
2013-02-12 09:31:00,34.9,28.0,28.99,West,270,7.0,15.0,74,0.00,,,0.00,Rainwise IP-100,2013-02-12 14:31:00,
2013-02-12 09:36:00,34.9,28.0,28.99,West,270,7.0,20.0,74,0.00,,,0.00,Rainwise IP-100,2013-02-12 14:36:00,
2013-02-12 09:41:00,34.9,28.0,28.99,WSW,247,11.0,17.0,74,0.00,,,0.00,Rainwise IP-100,2013-02-12 14:41:00,
2013-02-12 09:46:00,35.0,28.0,28.99,West,270,11.0,21.0,73,0.00,,,0.00,Rainwise IP-100,2013-02-12 14:46:00,
2013-02-12 09:51:00,35.1,28.0,28.99,West,270,9.0,20.0,73,0.00,,,0.00,Rainwise IP-100,2013-02-12 14:51:00,
2013-02-12 09:56:00,35.1,26.0,28.99,WSW,247,7.0,21.0,71,0.00,,,0.00,Rainwise IP-100,2013-02-12 14:56:00,
2013-02-12 10:01:00,35.1,28.0,28.99,WSW,247,4.0,15.0,73,0.00,,,0.00,Rainwise IP-100,2013-02-12 15:01:00,
2013-02-12 10:06:00,35.1,28.0,29.00,WSW,247,10.0,12.0,73,0.00,,,0.00,Rainwise IP-100,2013-02-12 15:06:00,
2013-02-12 10:11:00,35.1,28.0,29.00,WSW,247,12.0,13.0,73,0.00,,,0.00,Rainwise IP-100,2013-02-12 15:11:00,
2013-02-12 10:16:00,35.1,26.0,29.00,West,270,8.0,19.0,72,0.00,,,0.00,Rainwise IP-100,2013-02-12 15:16:00,
2013-02-12 10:21:00,35.1,26.0,29.00,WSW,247,6.0,17.0,72,0.00,,,0.00,Rainwise IP-100,2013-02-12 15:21:00,
2013-02-12 10:26:00,35.2,26.0,29.01,WNW,292,11.0,13.0,71,0.00,,,0.00,Rainwise IP-100,2013-02-12 15:26:00,
2013-02-12 10:31:00,35.3,26.0,29.01,WSW,247,15.0,18.0,69,0.00,,,0.00,Rainwise IP-100,2013-02-12 15:31:00,
2013-02-12 10:36:00,35.3,26.0,29.01,West,270,14.0,19.0,69,0.00,,,0.00,Rainwise IP-100,2013-02-12 15:36:00,
2013-02-12 10:41:00,35.2,26.0,29.01,West,270,11.0,21.0,69,0.00,,,0.00,Rainwise IP-100,2013-02-12 15:41:00,
2013-02-12 10:46:00,35.3,26.0,29.01,SW,225,6.0,19.0,68,0.00,,,0.00,Rainwise IP-100,2013-02-12 15:46:00,
2013-02-12 10:51:00,35.4,26.0,29.01,WSW,247,14.0,16.0,69,0.00,,,0.00,Rainwise IP-100,2013-02-12 15:51:00,
2013-02-12 10:56:00,35.4,26.0,29.01,WSW,247,7.0,20.0,68,0.00,,,0.00,Rainwise IP-100,2013-02-12 15:56:00,
2013-02-12 11:01:00,35.4,26.0,29.01,West,270,11.0,21.0,68,0.00,,,0.00,Rainwise IP-100,2013-02-12 16:01:00,
2013-02-12 11:06:00,35.4,24.0,29.00,WSW,247,13.0,22.0,66,0.00,,,0.00,Rainwise IP-100,2013-02-12 16:06:00,
2013-02-12 11:11:00,35.5,26.0,29.00,SSW,202,7.0,18.0,68,0.00,,,0.00,Rainwise IP-100,2013-02-12 16:11:00,
2013-02-12 11:16:00,35.5,26.0,29.01,WSW,247,6.0,20.0,68,0.00,,,0.00,Rainwise IP-100,2013-02-12 16:16:00,
2013-02-12 11:21:00,35.4,24.0,29.01,SW,225,11.0,19.0,67,0.00,,,0.00,Rainwise IP-100,2013-02-12 16:21:00,
2013-02-12 11:26:00,35.4,26.0,29.02,WSW,247,14.0,16.0,69,0.00,,,0.00,Rainwise IP-100,2013-02-12 16:26:00,
2013-02-12 11:31:00,35.4,26.0,29.01,SW,225,12.0,20.0,69,0.00,,,0.00,Rainwise IP-100,2013-02-12 16:31:00,
2013-02-12 11:36:00,35.5,26.0,29.01,West,270,12.0,17.0,67,0.00,,,0.00,Rainwise IP-100,2013-02-12 16:36:00,
2013-02-12 11:41:00,35.7,26.0,29.01,WSW,247,16.0,21.0,68,0.00,,,0.00,Rainwise IP-100,2013-02-12 16:41:00,
2013-02-12 11:46:00,35.9,26.0,29.01,WSW,247,6.0,16.0,67,0.00,,,0.00,Rainwise IP-100,2013-02-12 16:46:00,
2013-02-12 11:51:00,35.8,26.0,29.01,West,270,6.0,16.0,67,0.00,,,0.00,Rainwise IP-100,2013-02-12 16:51:00,
2013-02-12 11:56:00,35.6,26.0,29.01,SW,225,12.0,14.0,67,0.00,,,0.00,Rainwise IP-100,2013-02-12 16:56:00,
2013-02-12 12:01:00,35.4,26.0,29.02,WSW,247,4.0,16.0,68,0.00,,,0.00,Rainwise IP-100,2013-02-12 17:01:00,
2013-02-12 12:06:00,35.3,26.0,29.02,WSW,247,6.0,11.0,68,0.00,,,0.00,Rainwise IP-100,2013-02-12 17:06:00,
2013-02-12 12:11:00,35.2,26.0,29.02,WSW,247,6.0,11.0,69,0.00,,,0.00,Rainwise IP-100,2013-02-12 17:11:00,
2013-02-12 12:16:00,35.1,26.0,29.02,WSW,247,8.0,19.0,69,0.00,,,0.00,Rainwise IP-100,2013-02-12 17:16:00,
2013-02-12 12:21:00,35.1,24.0,29.02,WSW,247,9.0,19.0,67,0.00,,,0.00,Rainwise IP-100,2013-02-12 17:21:00,
2013-02-12 12:26:00,35.3,24.0,29.02,WSW,247,9.0,16.0,67,0.00,,,0.00,Rainwise IP-100,2013-02-12 17:26:00,
2013-02-12 12:31:00,35.3,24.0,29.02,SSW,202,8.0,17.0,66,0.00,,,0.00,Rainwise IP-100,2013-02-12 17:31:00,
2013-02-12 12:36:00,35.7,26.0,29.02,SW,225,10.0,14.0,65,0.00,,,0.00,Rainwise IP-100,2013-02-12 17:36:00,
2013-02-12 12:41:00,35.7,24.0,29.01,WSW,247,10.0,22.0,64,0.00,,,0.00,Rainwise IP-100,2013-02-12 17:41:00,
2013-02-12 12:46:00,35.6,26.0,29.02,WSW,247,11.0,19.0,65,0.00,,,0.00,Rainwise IP-100,2013-02-12 17:46:00,
2013-02-12 12:51:00,35.4,24.0,29.02,WSW,247,6.0,17.0,65,0.00,,,0.00,Rainwise IP-100,2013-02-12 17:51:00,
2013-02-12 12:56:00,35.3,24.0,29.03,West,270,6.0,15.0,65,0.00,,,0.00,Rainwise IP-100,2013-02-12 17:56:00,
2013-02-12 13:01:00,35.3,24.0,29.03,SW,225,12.0,14.0,65,0.00,,,0.00,Rainwise IP-100,2013-02-12 18:01:00,
2013-02-12 13:06:00,35.1,24.0,29.03,WSW,247,7.0,12.0,65,0.00,,,0.00,Rainwise IP-100,2013-02-12 18:06:00,
2013-02-12 13:11:00,35.1,24.0,29.03,SSW,202,8.0,9.0,66,0.00,,,0.00,Rainwise IP-100,2013-02-12 18:11:00,
2013-02-12 13:16:00,35.1,24.0,29.03,WSW,247,10.0,16.0,66,0.00,,,0.00,Rainwise IP-100,2013-02-12 18:16:00,
2013-02-12 13:21:00,35.1,26.0,29.03,West,270,4.0,12.0,68,0.00,,,0.00,Rainwise IP-100,2013-02-12 18:21:00,
2013-02-12 13:26:00,34.9,24.0,29.02,WSW,247,6.0,15.0,67,0.00,,,0.00,Rainwise IP-100,2013-02-12 18:26:00,
2013-02-12 13:31:00,34.9,24.0,29.02,WSW,247,7.0,12.0,66,0.00,,,0.00,Rainwise IP-100,2013-02-12 18:31:00,
2013-02-12 13:36:00,35.1,24.0,29.02,WSW,247,12.0,12.0,65,0.00,,,0.00,Rainwise IP-100,2013-02-12 18:36:00,
2013-02-12 13:41:00,35.1,24.0,29.01,WSW,247,13.0,15.0,65,0.00,,,0.00,Rainwise IP-100,2013-02-12 18:41:00,
2013-02-12 13:46:00,35.0,24.0,29.01,West,270,14.0,17.0,65,0.00,,,0.00,Rainwise IP-100,2013-02-12 18:46:00,
2013-02-12 13:51:00,35.0,24.0,29.01,SW,225,10.0,19.0,65,0.00,,,0.00,Rainwise IP-100,2013-02-12 18:51:00,
2013-02-12 13:56:00,35.0,24.0,29.01,West,270,7.0,17.0,65,0.00,,,0.00,Rainwise IP-100,2013-02-12 18:56:00,
2013-02-12 14:01:00,34.9,24.0,29.01,West,270,9.0,17.0,67,0.00,,,0.00,Rainwise IP-100,2013-02-12 19:01:00,
2013-02-12 14:06:00,34.9,24.0,29.00,WSW,247,6.0,16.0,67,0.00,,,0.00,Rainwise IP-100,2013-02-12 19:06:00,
2013-02-12 14:11:00,35.0,24.0,29.00,WNW,292,7.0,16.0,66,0.00,,,0.00,Rainwise IP-100,2013-02-12 19:11:00,
2013-02-12 14:16:00,34.9,24.0,29.00,West,270,9.0,12.0,65,0.00,,,0.00,Rainwise IP-100,2013-02-12 19:16:00,
2013-02-12 14:21:00,34.9,24.0,28.99,West,270,4.0,13.0,67,0.00,,,0.00,Rainwise IP-100,2013-02-12 19:21:00,
2013-02-12 14:26:00,34.7,24.0,29.00,WNW,292,11.0,13.0,67,0.00,,,0.00,Rainwise IP-100,2013-02-12 19:26:00,
2013-02-12 14:31:00,34.7,24.0,29.00,West,270,6.0,13.0,67,0.00,,,0.00,Rainwise IP-100,2013-02-12 19:31:00,
2013-02-12 14:36:00,34.6,26.0,29.00,WSW,247,4.0,12.0,69,0.00,,,0.00,Rainwise IP-100,2013-02-12 19:36:00,
2013-02-12 14:41:00,34.6,26.0,29.01,WSW,247,7.0,12.0,68,0.00,,,0.00,Rainwise IP-100,2013-02-12 19:41:00,
2013-02-12 14:46:00,34.6,26.0,29.00,West,270,6.0,16.0,68,0.00,,,0.00,Rainwise IP-100,2013-02-12 19:46:00,
2013-02-12 14:51:00,34.7,24.0,29.00,SW,225,11.0,19.0,66,0.00,,,0.00,Rainwise IP-100,2013-02-12 19:51:00,
2013-02-12 14:56:00,34.6,26.0,29.00,West,270,7.0,17.0,68,0.00,,,0.00,Rainwise IP-100,2013-02-12 19:56:00,
2013-02-12 15:01:00,34.6,26.0,29.00,SSW,202,7.0,21.0,68,0.00,,,0.00,Rainwise IP-100,2013-02-12 20:01:00,
2013-02-12 15:06:00,34.5,26.0,29.00,WSW,247,17.0,17.0,68,0.00,,,0.00,Rainwise IP-100,2013-02-12 20:06:00,
2013-02-12 15:11:00,34.4,24.0,28.99,West,270,8.0,17.0,67,0.00,,,0.00,Rainwise IP-100,2013-02-12 20:11:00,
2013-02-12 15:16:00,34.4,24.0,28.99,WSW,247,7.0,16.0,66,0.00,,,0.00,Rainwise IP-100,2013-02-12 20:16:00,
2013-02-12 15:21:00,34.3,24.0,28.99,WSW,247,11.0,16.0,65,0.00,,,0.00,Rainwise IP-100,2013-02-12 20:21:00,
2013-02-12 15:26:00,34.3,24.0,28.99,West,270,6.0,14.0,66,0.00,,,0.00,Rainwise IP-100,2013-02-12 20:26:00,
2013-02-12 15:31:00,34.2,24.0,28.99,West,270,10.0,13.0,66,0.00,,,0.00,Rainwise IP-100,2013-02-12 20:31:00,
2013-02-12 15:36:00,34.1,24.0,28.99,SSW,202,9.0,18.0,66,0.00,,,0.00,Rainwise IP-100,2013-02-12 20:36:00,
2013-02-12 15:42:00,34.0,24.0,28.99,West,270,7.0,16.0,66,0.00,,,0.00,Rainwise IP-100,2013-02-12 20:42:00,
2013-02-12 15:47:00,33.9,24.0,28.99,WSW,247,6.0,16.0,66,0.00,,,0.00,Rainwise IP-100,2013-02-12 20:47:00,
2013-02-12 15:52:00,33.9,24.0,28.98,WSW,247,10.0,13.0,66,0.00,,,0.00,Rainwise IP-100,2013-02-12 20:52:00,
2013-02-12 15:57:00,33.9,24.0,28.98,WSW,247,3.0,13.0,67,0.00,,,0.00,Rainwise IP-100,2013-02-12 20:57:00,
2013-02-12 16:02:00,33.9,24.0,28.97,West,270,8.0,11.0,65,0.00,,,0.00,Rainwise IP-100,2013-02-12 21:02:00,
2013-02-12 16:07:00,33.9,24.0,28.98,West,270,2.0,11.0,67,0.00,,,0.00,Rainwise IP-100,2013-02-12 21:07:00,
2013-02-12 16:12:00,33.8,24.0,28.97,West,270,8.0,12.0,66,0.00,,,0.00,Rainwise IP-100,2013-02-12 21:12:00,
2013-02-12 16:17:00,33.8,24.0,28.98,West,270,6.0,11.0,67,0.00,,,0.00,Rainwise IP-100,2013-02-12 21:17:00,
2013-02-12 16:22:00,33.7,24.0,28.99,West,270,5.0,7.0,66,0.00,,,0.00,Rainwise IP-100,2013-02-12 21:22:00,
2013-02-12 16:27:00,33.6,26.0,28.99,WSW,247,3.0,11.0,68,0.00,,,0.00,Rainwise IP-100,2013-02-12 21:27:00,
2013-02-12 16:32:00,33.5,24.0,28.99,WSW,247,7.0,7.0,67,0.00,,,0.00,Rainwise IP-100,2013-02-12 21:32:00,
2013-02-12 16:37:00,33.6,24.0,28.99,West,270,5.0,14.0,67,0.00,,,0.00,Rainwise IP-100,2013-02-12 21:37:00,
2013-02-12 16:42:00,33.5,24.0,29.00,West,270,6.0,12.0,67,0.00,,,0.00,Rainwise IP-100,2013-02-12 21:42:00,
2013-02-12 16:47:00,33.4,24.0,29.00,WSW,247,5.0,14.0,68,0.00,,,0.00,Rainwise IP-100,2013-02-12 21:47:00,
2013-02-12 16:52:00,33.5,26.0,28.99,West,270,9.0,17.0,68,0.00,,,0.00,Rainwise IP-100,2013-02-12 21:52:00,
2013-02-12 16:57:00,33.4,24.0,29.00,WSW,247,5.0,14.0,69,0.00,,,0.00,Rainwise IP-100,2013-02-12 21:57:00,
2013-02-12 17:02:00,33.3,24.0,29.00,West,270,6.0,11.0,69,0.00,,,0.00,Rainwise IP-100,2013-02-12 22:02:00,
2013-02-12 17:07:00,33.3,24.0,29.00,WSW,247,16.0,16.0,67,0.00,,,0.00,Rainwise IP-100,2013-02-12 22:07:00,
2013-02-12 17:12:00,33.3,24.0,29.00,West,270,4.0,16.0,67,0.00,,,0.00,Rainwise IP-100,2013-02-12 22:12:00,
2013-02-12 17:17:00,33.3,24.0,29.01,WSW,247,7.0,17.0,67,0.00,,,0.00,Rainwise IP-100,2013-02-12 22:17:00,
2013-02-12 17:22:00,33.3,24.0,29.01,West,270,6.0,17.0,67,0.00,,,0.00,Rainwise IP-100,2013-02-12 22:22:00,
2013-02-12 17:27:00,33.3,24.0,29.01,SW,225,7.0,16.0,66,0.00,,,0.00,Rainwise IP-100,2013-02-12 22:27:00,
2013-02-12 17:32:00,33.3,24.0,29.01,SW,225,4.0,17.0,66,0.00,,,0.00,Rainwise IP-100,2013-02-12 22:32:00,
2013-02-12 17:37:00,33.1,24.0,29.01,WSW,247,3.0,10.0,67,0.00,,,0.00,Rainwise IP-100,2013-02-12 22:37:00,
2013-02-12 17:42:00,33.1,24.0,29.02,WSW,247,8.0,8.0,67,0.00,,,0.00,Rainwise IP-100,2013-02-12 22:42:00,
2013-02-12 17:47:00,33.2,23.0,29.02,West,270,6.0,14.0,65,0.00,,,0.00,Rainwise IP-100,2013-02-12 22:47:00,
2013-02-12 17:52:00,33.2,23.0,29.02,SW,225,7.0,11.0,65,0.00,,,0.00,Rainwise IP-100,2013-02-12 22:52:00,
2013-02-12 17:57:00,33.1,24.0,29.03,SW,225,5.0,11.0,66,0.00,,,0.00,Rainwise IP-100,2013-02-12 22:57:00,
2013-02-12 18:02:00,33.2,24.0,29.03,WSW,247,6.0,11.0,66,0.00,,,0.00,Rainwise IP-100,2013-02-12 23:02:00,
2013-02-12 18:07:00,33.2,24.0,29.03,WSW,247,3.0,11.0,66,0.00,,,0.00,Rainwise IP-100,2013-02-12 23:07:00,
2013-02-12 18:12:00,33.2,23.0,29.03,SW,225,6.0,12.0,65,0.00,,,0.00,Rainwise IP-100,2013-02-12 23:12:00,
2013-02-12 18:17:00,33.1,24.0,29.04,WSW,247,4.0,9.0,66,0.00,,,0.00,Rainwise IP-100,2013-02-12 23:17:00,
2013-02-12 18:22:00,33.1,24.0,29.04,SSW,202,4.0,10.0,66,0.00,,,0.00,Rainwise IP-100,2013-02-12 23:22:00,
2013-02-12 18:27:00,33.1,24.0,29.05,SSW,202,6.0,9.0,67,0.00,,,0.00,Rainwise IP-100,2013-02-12 23:27:00,
2013-02-12 18:32:00,33.1,24.0,29.05,WSW,247,7.0,10.0,67,0.00,,,0.00,Rainwise IP-100,2013-02-12 23:32:00,
2013-02-12 18:37:00,32.9,24.0,29.04,WSW,247,7.0,10.0,68,0.00,,,0.00,Rainwise IP-100,2013-02-12 23:37:00,
2013-02-12 18:42:00,32.9,24.0,29.04,SW,225,6.0,9.0,67,0.00,,,0.00,Rainwise IP-100,2013-02-12 23:42:00,
2013-02-12 18:47:00,32.9,24.0,29.04,SW,225,9.0,10.0,69,0.00,,,0.00,Rainwise IP-100,2013-02-12 23:47:00,
2013-02-12 18:52:00,32.8,24.0,29.05,WSW,247,7.0,10.0,70,0.00,,,0.00,Rainwise IP-100,2013-02-12 23:52:00,
2013-02-12 18:57:00,32.8,24.0,29.05,WSW,247,4.0,14.0,70,0.00,,,0.00,Rainwise IP-100,2013-02-12 23:57:00,
2013-02-12 19:02:00,32.7,26.0,29.05,SW,225,6.0,12.0,72,0.00,,,0.00,Rainwise IP-100,2013-02-13 00:02:00,
2013-02-12 19:07:00,32.7,26.0,29.05,SW,225,6.0,14.0,73,0.00,,,0.00,Rainwise IP-100,2013-02-13 00:07:00,
2013-02-12 19:12:00,32.7,26.0,29.05,SSW,202,8.0,17.0,74,0.00,,,0.00,Rainwise IP-100,2013-02-13 00:12:00,
2013-02-12 19:17:00,32.6,26.0,29.04,SSW,202,9.0,14.0,74,0.00,,,0.00,Rainwise IP-100,2013-02-13 00:17:00,
2013-02-12 19:22:00,32.7,26.0,29.05,SSW,202,9.0,17.0,72,0.00,,,0.00,Rainwise IP-100,2013-02-13 00:22:00,
2013-02-12 19:27:00,32.7,26.0,29.05,SW,225,11.0,18.0,72,0.00,,,0.00,Rainwise IP-100,2013-02-13 00:27:00,
2013-02-12 19:32:00,32.7,26.0,29.05,SSW,202,4.0,16.0,73,0.00,,,0.00,Rainwise IP-100,2013-02-13 00:32:00,
2013-02-12 19:37:00,32.7,26.0,29.05,SW,225,4.0,15.0,73,0.00,,,0.00,Rainwise IP-100,2013-02-13 00:37:00,
2013-02-12 19:42:00,32.8,26.0,29.05,SSW,202,2.0,15.0,72,0.00,,,0.00,Rainwise IP-100,2013-02-13 00:42:00,
2013-02-12 19:47:00,32.7,26.0,29.06,SSW,202,11.0,14.0,73,0.00,,,0.00,Rainwise IP-100,2013-02-13 00:47:00,
2013-02-12 19:52:00,32.8,26.0,29.05,SSW,202,6.0,16.0,73,0.00,,,0.00,Rainwise IP-100,2013-02-13 00:52:00,
2013-02-12 19:57:00,32.8,26.0,29.05,West,270,4.0,17.0,73,0.00,,,0.00,Rainwise IP-100,2013-02-13 00:57:00,
2013-02-12 20:02:00,32.7,26.0,29.05,SSW,202,9.0,12.0,73,0.00,,,0.00,Rainwise IP-100,2013-02-13 01:02:00,
2013-02-12 20:07:00,32.8,26.0,29.05,SSW,202,9.0,12.0,73,0.00,,,0.00,Rainwise IP-100,2013-02-13 01:07:00,
2013-02-12 20:12:00,32.8,26.0,29.05,WSW,247,8.0,14.0,74,0.00,,,0.00,Rainwise IP-100,2013-02-13 01:12:00,
2013-02-12 20:17:00,32.7,26.0,29.05,WSW,247,7.0,11.0,74,0.00,,,0.00,Rainwise IP-100,2013-02-13 01:17:00,
2013-02-12 20:22:00,32.7,26.0,29.05,WSW,247,6.0,11.0,74,0.00,,,0.00,Rainwise IP-100,2013-02-13 01:22:00,
2013-02-12 20:27:00,32.7,26.0,29.05,SW,225,6.0,13.0,75,0.00,,,0.00,Rainwise IP-100,2013-02-13 01:27:00,
2013-02-12 20:32:00,32.6,26.0,29.05,SW,225,5.0,9.0,75,0.00,,,0.00,Rainwise IP-100,2013-02-13 01:32:00,
2013-02-12 20:37:00,32.7,26.0,29.05,SW,225,7.0,11.0,75,0.00,,,0.00,Rainwise IP-100,2013-02-13 01:37:00,
2013-02-12 20:42:00,32.6,26.0,29.05,WSW,247,7.0,9.0,76,0.00,,,0.00,Rainwise IP-100,2013-02-13 01:42:00,
2013-02-12 20:47:00,32.5,26.0,29.05,SW,225,6.0,8.0,76,0.00,,,0.00,Rainwise IP-100,2013-02-13 01:47:00,
2013-02-12 20:52:00,32.5,26.0,29.04,SW,225,4.0,7.0,76,0.00,,,0.00,Rainwise IP-100,2013-02-13 01:52:00,
2013-02-12 20:57:00,32.5,26.0,29.05,WSW,247,2.0,6.0,76,0.00,,,0.00,Rainwise IP-100,2013-02-13 01:57:00,
2013-02-12 21:02:00,32.5,28.0,29.04,SW,225,3.0,6.0,77,0.00,,,0.00,Rainwise IP-100,2013-02-13 02:02:00,
2013-02-12 21:07:00,32.6,26.0,29.04,WSW,247,7.0,14.0,76,0.00,,,0.00,Rainwise IP-100,2013-02-13 02:07:00,
2013-02-12 21:12:00,32.6,28.0,29.04,SW,225,4.0,14.0,77,0.00,,,0.00,Rainwise IP-100,2013-02-13 02:12:00,
2013-02-12 21:17:00,32.5,28.0,29.04,West,270,3.0,11.0,77,0.00,,,0.00,Rainwise IP-100,2013-02-13 02:17:00,
2013-02-12 21:22:00,32.5,28.0,29.04,WSW,247,6.0,9.0,77,0.00,,,0.00,Rainwise IP-100,2013-02-13 02:22:00,
2013-02-12 21:27:00,32.4,26.0,29.04,WSW,247,4.0,7.0,77,0.00,,,0.00,Rainwise IP-100,2013-02-13 02:27:00,
2013-02-12 21:32:00,32.4,26.0,29.04,WSW,247,10.0,10.0,77,0.00,,,0.00,Rainwise IP-100,2013-02-13 02:32:00,
2013-02-12 21:37:00,32.4,26.0,29.03,WSW,247,1.0,10.0,77,0.00,,,0.00,Rainwise IP-100,2013-02-13 02:37:00,
2013-02-12 21:42:00,32.4,26.0,29.03,WSW,247,2.0,7.0,77,0.00,,,0.00,Rainwise IP-100,2013-02-13 02:42:00,
2013-02-12 21:47:00,32.3,26.0,29.03,WSW,247,4.0,5.0,78,0.00,,,0.00,Rainwise IP-100,2013-02-13 02:47:00,
2013-02-12 21:52:00,32.3,26.0,29.03,SW,225,4.0,6.0,78,0.00,,,0.00,Rainwise IP-100,2013-02-13 02:52:00,
2013-02-12 21:57:00,32.3,26.0,29.03,SW,225,3.0,8.0,77,0.00,,,0.00,Rainwise IP-100,2013-02-13 02:57:00,
2013-02-12 22:02:00,32.3,26.0,29.03,WSW,247,2.0,5.0,77,0.00,,,0.00,Rainwise IP-100,2013-02-13 03:02:00,
2013-02-12 22:07:00,32.2,26.0,29.03,WSW,247,4.0,4.0,77,0.00,,,0.00,Rainwise IP-100,2013-02-13 03:07:00,
2013-02-12 22:12:00,32.2,26.0,29.03,WSW,247,2.0,6.0,77,0.00,,,0.00,Rainwise IP-100,2013-02-13 03:12:00,
2013-02-12 22:17:00,32.3,26.0,29.02,WSW,247,1.0,6.0,76,0.00,,,0.00,Rainwise IP-100,2013-02-13 03:17:00,
2013-02-12 22:22:00,32.2,26.0,29.02,SW,225,1.0,7.0,76,0.00,,,0.00,Rainwise IP-100,2013-02-13 03:22:00,
2013-02-12 22:27:00,32.1,26.0,29.02,WSW,247,2.0,4.0,77,0.00,,,0.00,Rainwise IP-100,2013-02-13 03:27:00,
2013-02-12 22:32:00,32.0,26.0,29.01,WSW,247,1.0,2.0,76,0.00,,,0.00,Rainwise IP-100,2013-02-13 03:32:00,
2013-02-12 22:37:00,32.0,26.0,29.02,SW,225,0.0,2.0,75,0.00,,,0.00,Rainwise IP-100,2013-02-13 03:37:00,
2013-02-12 22:42:00,32.1,24.0,29.01,SW,225,1.0,4.0,74,0.00,,,0.00,Rainwise IP-100,2013-02-13 03:42:00,
2013-02-12 22:47:00,32.1,26.0,29.01,WSW,247,4.0,4.0,75,0.00,,,0.00,Rainwise IP-100,2013-02-13 03:47:00,
2013-02-12 22:52:00,32.2,24.0,29.01,WSW,247,4.0,9.0,73,0.00,,,0.00,Rainwise IP-100,2013-02-13 03:52:00,
2013-02-12 22:57:00,32.1,24.0,29.01,West,270,9.0,9.0,74,0.00,,,0.00,Rainwise IP-100,2013-02-13 03:57:00,
2013-02-12 23:02:00,32.2,24.0,29.02,WSW,247,9.0,11.0,72,0.00,,,0.00,Rainwise IP-100,2013-02-13 04:02:00,
2013-02-12 23:07:00,32.2,24.0,29.02,WSW,247,5.0,11.0,72,0.00,,,0.00,Rainwise IP-100,2013-02-13 04:07:00,
2013-02-12 23:12:00,32.1,24.0,29.01,WSW,247,4.0,12.0,73,0.00,,,0.00,Rainwise IP-100,2013-02-13 04:12:00,
2013-02-12 23:17:00,32.1,24.0,29.01,West,270,6.0,12.0,73,0.00,,,0.00,Rainwise IP-100,2013-02-13 04:17:00,
2013-02-12 23:22:00,32.0,24.0,29.01,WSW,247,7.0,11.0,73,0.00,,,0.00,Rainwise IP-100,2013-02-13 04:22:00,
2013-02-12 23:27:00,31.9,24.0,29.01,WSW,247,4.0,11.0,73,0.00,,,0.00,Rainwise IP-100,2013-02-13 04:27:00,
2013-02-12 23:32:00,31.9,24.0,29.01,West,270,2.0,7.0,74,0.00,,,0.00,Rainwise IP-100,2013-02-13 04:32:00,
2013-02-12 23:37:00,31.9,24.0,29.01,West,270,4.0,7.0,73,0.00,,,0.00,Rainwise IP-100,2013-02-13 04:37:00,
2013-02-12 23:42:00,31.9,24.0,29.01,West,270,7.0,12.0,73,0.00,,,0.00,Rainwise IP-100,2013-02-13 04:42:00,
2013-02-12 23:47:00,31.8,24.0,29.01,SW,225,2.0,11.0,74,0.00,,,0.00,Rainwise IP-100,2013-02-13 04:47:00,
2013-02-12 23:52:00,31.8,24.0,29.01,WSW,247,6.0,10.0,73,0.00,,,0.00,Rainwise IP-100,2013-02-13 04:52:00,
2013-02-12 23:57:00,31.8,24.0,29.01,WSW,247,2.0,8.0,73,0.00,,,0.00,Rainwise IP-100,2013-02-13 04:57:00,